H1 CPF 2 NER 2023 1 6 9 006 01 glonass131 H2 1301901 9131 39155 2023 1 6 0 0 0 2023 1 9 23 45 0 900 1 1 0 0 0 1 H9 10 0 59950 0.00000 0 -18343909.277 4694498.771 17095127.651 10 0 59950 900.00000 0 -20299763.882 4507177.769 14765298.036 10 0 59950 1800.00000 0 -21961384.738 4489291.504 12148501.700 10 0 59950 2700.00000 0 -23283653.692 4599391.215 9295385.761 10 0 59950 3600.00000 0 -24232483.362 4788881.497 6261295.611 10 0 59950 4500.00000 0 -24786154.371 5004292.784 3105205.285 10 0 59950 5400.00000 0 -24936152.051 5189774.630 -111432.102 10 0 59950 6300.00000 0 -24687464.887 5289703.334 -3325891.154 10 0 59950 7200.00000 0 -24058329.845 5251291.707 -6475413.505 10 0 59950 8100.00000 0 -23079433.654 5027087.811 -9498453.718 10 0 59950 9000.00000 0 -21792602.762 4577253.630 -12335905.228 10 0 59950 9900.00000 0 -20249037.226 3871523.865 -14932279.825 10 0 59950 10800.00000 0 -18507163.802 2890758.601 -17236815.170 10 0 59950 11700.00000 0 -16630200.265 1628021.313 -19204486.505 10 0 59950 12600.00000 0 -14683535.607 89134.391 -20796900.852 10 0 59950 13500.00000 0 -12732038.538 -1707312.757 -21983055.052 10 0 59950 14400.00000 0 -10837409.490 -3730504.081 -22739942.184 10 0 59950 15300.00000 0 -9055688.992 -5938462.923 -23052994.512 10 0 59950 16200.00000 0 -7435027.857 -8279598.255 -22916354.963 10 0 59950 17100.00000 0 -6013812.689 -10694665.199 -22332972.943 10 0 59950 18000.00000 0 -4819224.431 -13119056.302 -21314524.141 10 0 59950 18900.00000 0 -3866288.484 -15485326.512 -19881157.652 10 0 59950 19800.00000 0 -3157453.589 -17725845.298 -18061077.225 10 0 59950 20700.00000 0 -2682713.978 -19775464.504 -15889966.717 10 0 59950 21600.00000 0 -2420266.118 -21574090.665 -13410272.706 10 0 59950 22500.00000 0 -2337668.959 -23069055.022 -10670359.787 10 0 59950 23400.00000 0 -2393455.646 -24217183.648 -7723556.332 10 0 59950 24300.00000 0 -2539126.166 -24986483.117 -4627110.240 10 0 59950 25200.00000 0 -2721434.930 -25357373.689 -1441075.497 10 0 59950 26100.00000 0 -2884875.734 -25323421.010 1772848.574 10 0 59950 27000.00000 0 -2974258.928 -24891538.330 4952503.139 10 0 59950 27900.00000 0 -2937272.521 -24081653.119 8036458.513 10 0 59950 28800.00000 0 -2726920.253 -22925853.860 10965183.667 10 0 59950 29700.00000 0 -2303735.303 -21467053.897 13682175.469 10 0 59950 30600.00000 0 -1637677.879 -19757228.508 16135027.666 10 0 59950 31500.00000 0 -709638.273 -17855298.454 18276420.820 10 0 59950 32400.00000 0 487516.947 -15824747.066 20065016.180 10 0 59950 33300.00000 0 1948399.269 -13731068.330 21466238.174 10 0 59950 34200.00000 0 3655076.569 -11639150.015 22452932.015 10 0 59950 35100.00000 0 5577577.902 -9610698.241 23005884.999 10 0 59950 36000.00000 0 7674906.028 -7701808.211 23114202.107 10 0 59950 36900.00000 0 9896518.460 -5960780.120 22775528.625 10 0 59950 37800.00000 0 12184218.788 -4426269.560 21996114.814 10 0 59950 38700.00000 0 14474383.149 -3125848.584 20790719.975 10 0 59950 39600.00000 0 16700432.413 -2075037.396 19182355.787 10 0 59950 40500.00000 0 18795449.986 -1276847.691 17201871.471 10 0 59950 41400.00000 0 20694838.158 -721858.014 14887386.109 10 0 59950 42300.00000 0 22338903.105 -388819.653 12283576.503 10 0 59950 43200.00000 0 23675260.539 -245769.335 9440831.930 10 0 59950 44100.00000 0 24660960.283 -251603.502 6414290.224 10 0 59950 45000.00000 0 25264238.745 -358048.902 3262772.697 10 0 59950 45900.00000 0 25465823.253 -511946.642 47638.037 10 0 59950 46800.00000 0 25259730.627 -657752.662 -3168422.176 10 0 59950 47700.00000 0 24653523.657 -740147.394 -6322621.745 10 0 59950 48600.00000 0 23668012.419 -706641.872 -9353326.028 10 0 59950 49500.00000 0 22336411.404 -510067.008 -12201279.486 10 0 59950 50400.00000 0 20702987.208 -110837.377 -14810788.098 10 0 59950 51300.00000 0 18821253.948 521109.660 -17130831.054 10 0 59950 52200.00000 0 16751793.296 1404784.625 -19116077.799 10 0 59950 53100.00000 0 14559792.562 2547093.531 -20727788.574 10 0 59950 54000.00000 0 12312406.229 3942308.771 -21934579.652 10 0 59950 54900.00000 0 10076053.794 5572086.624 -22713037.607 10 0 59950 55800.00000 0 7913769.086 7406030.875 -23048170.592 10 0 59950 56700.00000 0 5882713.321 9402778.383 -22933688.423 10 0 59950 57600.00000 0 4031956.472 11511560.024 -22372107.097 10 0 59950 58500.00000 0 2400619.371 13674170.133 -21374677.194 10 0 59950 59400.00000 0 1016452.839 15827260.479 -19961139.358 10 0 59950 60300.00000 0 -105089.039 17904861.471 -18159313.460 10 0 59950 61200.00000 0 -961245.674 19841024.059 -16004531.398 10 0 59950 62100.00000 0 -1561803.680 21572471.404 -13538926.357 10 0 59950 63000.00000 0 -1928417.429 23041149.594 -10810593.914 10 0 59950 63900.00000 0 -2093428.517 24196571.483 -7872642.710 10 0 59950 64800.00000 0 -2098237.083 24997857.074 -4782154.090 10 0 59950 65700.00000 0 -1991296.104 25415386.971 -1599071.523 10 0 59950 66600.00000 0 -1825814.966 25432001.950 1614958.373 10 0 59950 67500.00000 0 -1657270.081 25043700.816 4797770.982 10 0 59950 68400.00000 0 -1540827.605 24259809.574 7887872.757 10 0 59950 69300.00000 0 -1528786.274 23102616.697 10825612.171 10 0 59950 70200.00000 0 -1668146.935 21606491.057 13554311.435 10 0 59950 71100.00000 0 -1998409.675 19816519.931 16021338.877 10 0 59950 72000.00000 0 -2549689.651 17786723.734 18179103.166 10 0 59950 72900.00000 0 -3341229.614 15577920.918 19985952.260 10 0 59950 73800.00000 0 -4380370.836 13255330.172 21406961.659 10 0 59950 74700.00000 0 -5662025.563 10886007.531 22414598.385 10 0 59950 75600.00000 0 -7168673.982 8536222.280 22989249.171 10 0 59950 76500.00000 0 -8870887.605 6268878.038 23119603.341 10 0 59950 77400.00000 0 -10728359.706 4141083.740 22802883.038 10 0 59950 78300.00000 0 -12691402.977 2201973.397 22044915.693 10 0 59950 79200.00000 0 -14702855.403 490863.884 20860045.976 10 0 59950 80100.00000 0 -16700318.279 -964173.175 19270887.006 10 0 59950 81000.00000 0 -18618636.112 -2147265.780 17307913.208 10 0 59950 81900.00000 0 -20392517.345 -3055181.568 15008900.045 10 0 59950 82800.00000 0 -21959187.868 -3697233.638 12418218.824 10 0 59950 83700.00000 0 -23260966.797 -4094654.558 9585997.789 10 0 59950 84600.00000 0 -24247656.013 -4279463.258 6567163.786 10 0 59950 85500.00000 0 -24878641.559 -4292871.161 3420381.812 10 0 59951 0.00000 0 -25124616.254 -4183294.096 206912.799 10 0 59951 900.00000 0 -24968848.247 -4004053.965 -3010589.662 10 0 59951 1800.00000 0 -24407938.837 -3810868.410 -6169314.728 10 0 59951 2700.00000 0 -23452035.308 -3659236.371 -9207541.863 10 0 59951 3600.00000 0 -22124487.111 -3601832.877 -12065869.648 10 0 59951 4500.00000 0 -20460958.617 -3686026.361 -14688401.063 10 0 59951 5400.00000 0 -18508035.197 -3951626.884 -17023859.291 10 0 59951 6300.00000 0 -16321381.565 -4428963.657 -19026610.014 10 0 59951 7200.00000 0 -13963530.975 -5137375.919 -20657568.216 10 0 59951 8100.00000 0 -11501399.741 -6084182.993 -21884970.546 10 0 59951 9000.00000 0 -9003633.220 -7264178.367 -22684997.412 10 0 59951 9900.00000 0 -6537896.379 -8659669.593 -23042232.587 10 0 59951 10800.00000 0 -4168223.782 -10241062.069 -22949951.938 10 0 59951 11700.00000 0 -1952540.614 -11967961.287 -22410236.711 10 0 59951 12600.00000 0 59541.557 -13790745.810 -21433910.631 10 0 59951 13500.00000 0 1828563.188 -15652543.401 -20040303.804 10 0 59951 14400.00000 0 3326614.371 -17491525.843 -18256849.889 10 0 59951 15300.00000 0 4538235.862 -19243424.880 -16118526.314 10 0 59951 16200.00000 0 5460789.198 -20844162.916 -13667150.240 10 0 59951 17100.00000 0 6104284.122 -22232487.938 -10950545.537 10 0 59951 18000.00000 0 6490674.314 -23352502.460 -8021598.392 10 0 59951 18900.00000 0 6652654.601 -24155981.461 -4937220.901 10 0 59951 19800.00000 0 6632013.351 -24604383.655 -1757243.363 10 0 59951 20700.00000 0 6477611.700 -24670473.629 1456742.885 10 0 59951 21600.00000 0 6243076.345 -24339489.021 4642569.924 10 0 59951 22500.00000 0 5984303.754 -23609805.898 7738682.696 10 0 59951 23400.00000 0 5756880.764 -22493076.325 10685311.396 10 0 59951 24300.00000 0 5613529.405 -21013833.762 13425605.634 10 0 59951 25200.00000 0 5601682.124 -19208583.467 15906710.179 10 0 59951 26100.00000 0 5761287.854 -17124415.911 18080763.449 10 0 59951 27000.00000 0 6122939.583 -14817200.144 19905801.475 10 0 59951 27900.00000 0 6706400.877 -12349430.756 21346551.908 10 0 59951 28800.00000 0 7519592.505 -9787815.788 22375104.336 10 0 59951 29700.00000 0 8558081.826 -7200703.162 22971445.348 10 0 59951 30600.00000 0 9805097.369 -4655449.575 23123848.707 10 0 59951 31500.00000 0 11232069.846 -2215838.377 22829113.183 10 0 59951 32400.00000 0 12799679.671 60348.891 22092642.846 10 0 59951 33300.00000 0 14459370.351 2123508.352 20928366.936 10 0 59951 34200.00000 0 16155267.846 3934047.689 19358498.947 10 0 59951 35100.00000 0 17826428.924 5463802.178 17413137.205 10 0 59951 36000.00000 0 19409327.246 6696973.427 15129712.007 10 0 59951 36900.00000 0 20840475.069 7630550.529 12552287.366 10 0 59951 37800.00000 0 22059071.715 8274194.540 9730728.456 10 0 59951 38700.00000 0 23009567.633 8649589.536 6719748.829 10 0 59951 39600.00000 0 23644035.091 8789285.964 3577854.635 10 0 59951 40500.00000 0 23924243.772 8735084.008 366205.726 10 0 59951 41400.00000 0 23823351.049 8536024.784 -2852584.006 10 0 59951 42300.00000 0 23327132.610 8246074.633 -6015682.586 10 0 59951 43200.00000 0 22434698.410 7921601.801 -9061286.455 10 0 59951 44100.00000 0 21158660.952 7618754.350 -11929851.053 10 0 59951 45000.00000 0 19524746.682 7390853.010 -14565278.858 10 0 59951 45900.00000 0 17570865.531 7285912.384 -16916039.273 10 0 59951 46800.00000 0 15345677.309 7344398.483 -18936196.129 10 0 59951 47700.00000 0 12906715.736 7597320.248 -20586320.770 10 0 59951 48600.00000 0 10318150.002 8064738.010 -21834271.559 10 0 59951 49500.00000 0 7648279.293 8754753.422 -22655823.799 10 0 59951 50400.00000 0 4966867.061 9663024.207 -23035137.672 10 0 59951 51300.00000 0 2342428.084 10772824.097 -22965055.597 10 0 59951 52200.00000 0 -160417.195 12055644.618 -22447224.237 10 0 59951 53100.00000 0 -2483410.047 13472312.008 -21492040.258 10 0 59951 54000.00000 0 -4576840.050 14974570.598 -20118422.637 10 0 59951 54900.00000 0 -6401360.962 16507064.297 -18353417.826 10 0 59951 55800.00000 0 -7929362.212 18009631.235 -16231647.401 10 0 59951 56700.00000 0 -9145841.727 19419813.857 -13794610.752 10 0 59951 57600.00000 0 -10048747.095 20675478.243 -11089857.976 10 0 59951 58500.00000 0 -10648774.517 21717432.411 -8170050.486 10 0 59951 59400.00000 0 -10968637.771 22491934.088 -5091928.588 10 0 59951 60300.00000 0 -11041841.301 22952983.665 -1915206.717 10 0 59951 61200.00000 0 -10911011.858 23064307.549 1298581.878 10 0 59951 62100.00000 0 -10625860.968 22800950.492 4487268.843 10 0 59951 63000.00000 0 -10240865.239 22150412.008 7589240.502 10 0 59951 63900.00000 0 -9812762.468 21113281.031 10544611.633 10 0 59951 64800.00000 0 -9397968.504 19703343.668 13296362.025 10 0 59951 65700.00000 0 -9050022.423 17947160.371 15791415.573 10 0 59951 66600.00000 0 -8817165.880 15883130.394 17981642.956 10 0 59951 67500.00000 0 -8740156.649 13560081.887 19824770.615 10 0 59951 68400.00000 0 -8850406.552 11035444.919 21285180.442 10 0 59951 69300.00000 0 -9168520.708 8373081.332 22334586.418 10 0 59951 70200.00000 0 -9703298.790 5640858.894 22952576.489 10 0 59951 71100.00000 0 -10451240.386 2908067.435 23127009.986 10 0 59951 72000.00000 0 -11396576.332 242781.181 22854263.015 10 0 59951 72900.00000 0 -12511826.622 -2290726.117 22139316.523 10 0 59951 73800.00000 0 -13758864.245 -4634408.397 20995684.041 10 0 59951 74700.00000 0 -15090443.437 -6738617.602 19445178.622 10 0 59951 75600.00000 0 -16452131.540 -8563927.777 17517521.138 10 0 59951 76500.00000 0 -17784566.465 -10082537.034 15249794.834 10 0 59951 77400.00000 0 -19025947.410 -11279188.098 12685754.074 10 0 59951 78300.00000 0 -20114655.798 -12151567.708 9874998.176 10 0 59951 79200.00000 0 -20991896.738 -12710166.496 6872024.293 10 0 59951 80100.00000 0 -21604249.225 -12977603.534 3735176.369 10 0 59951 81000.00000 0 -21906016.012 -12987442.590 525509.950 10 0 59951 81900.00000 0 -21861271.558 -12782549.163 -2694404.956 10 0 59951 82800.00000 0 -21445518.566 -12413057.483 -5861718.560 10 0 59951 83700.00000 0 -20646879.923 -11934034.194 -8914547.855 10 0 59951 84600.00000 0 -19466772.510 -11402939.084 -11793208.583 10 0 59951 85500.00000 0 -17920031.804 -10876992.587 -14441405.994 10 0 59952 0.00000 0 -16034480.153 -10410564.246 -16807358.486 10 0 59952 900.00000 0 -13849954.702 -10052695.348 -18844831.076 10 0 59952 1800.00000 0 -11416838.248 -9844863.912 -20514053.365 10 0 59952 2700.00000 0 -8794151.895 -9819088.041 -21782506.976 10 0 59952 3600.00000 0 -6047293.144 -9996450.146 -22625563.027 10 0 59952 4500.00000 0 -3245514.744 -10386104.962 -23026958.377 10 0 59952 5400.00000 0 -459251.502 -10984813.330 -22979101.629 10 0 59952 6300.00000 0 2242592.035 -11777020.676 -22483203.941 10 0 59952 7200.00000 0 4795278.873 -12735475.451 -21549233.507 10 0 59952 8100.00000 0 7140691.818 -13822359.688 -20195696.364 10 0 59952 9000.00000 0 9229499.194 -14990881.994 -18449249.623 10 0 59952 9900.00000 0 11022945.213 -16187263.892 -16344156.601 10 0 59952 10800.00000 0 12494192.832 -17353034.167 -13921596.297 10 0 59952 11700.00000 0 13629166.110 -18427533.330 -11228842.228 10 0 59952 12600.00000 0 14426860.336 -19350522.083 -8318328.060 10 0 59952 13500.00000 0 14899110.718 -20064783.924 -5246619.229 10 0 59952 14400.00000 0 15069832.928 -20518612.955 -2073311.168 10 0 59952 15300.00000 0 14973770.521 -20668083.336 1140124.107 10 0 59952 16200.00000 0 14654804.429 -20479006.495 4331520.867 10 0 59952 17100.00000 0 14163897.323 -19928495.574 7439209.723 10 0 59952 18000.00000 0 13556760.119 -19006073.159 10403192.730 10 0 59952 18900.00000 0 12891338.729 -17714277.310 13166282.268 10 0 59952 19800.00000 0 12225225.906 -16068741.482 15675183.441 10 0 59952 20700.00000 0 11613105.511 -14097745.379 17881500.926 10 0 59952 21600.00000 0 11104334.763 -11841255.058 19742652.929 10 0 59952 22500.00000 0 10740764.055 -9349491.035 21222676.565 10 0 59952 23400.00000 0 10554884.111 -6681082.055 22292910.802 10 0 59952 24300.00000 0 10568376.952 -3900878.611 22932545.169 10 0 59952 25200.00000 0 10791130.863 -1077513.919 23129024.435 10 0 59952 26100.00000 0 11220760.936 1719189.632 22878301.582 10 0 59952 27000.00000 0 11842656.445 4420864.123 22184933.671 10 0 59952 27900.00000 0 12630555.037 6963182.974 21062017.489 10 0 59952 28800.00000 0 13547622.222 9288285.676 19530964.375 10 0 59952 29700.00000 0 14547993.815 11346941.033 17621116.241 10 0 59952 30600.00000 0 15578719.489 13100359.382 15369207.568 10 0 59952 31500.00000 0 16582028.358 14521577.785 12818681.147 10 0 59952 32400.00000 0 17497823.203 15596359.302 10018868.318 10 0 59952 33300.00000 0 18266299.347 16323567.111 7024047.503 10 0 59952 34200.00000 0 18830577.711 16714995.929 3892397.930 10 0 59952 35100.00000 0 19139239.843 16794666.160 684868.169 10 0 59952 36000.00000 0 19148655.794 16597609.174 -2536018.411 10 0 59952 36900.00000 0 18825003.628 16168194.278 -5707396.988 10 0 59952 37800.00000 0 18145891.976 15558068.195 -8767307.817 10 0 59952 38700.00000 0 17101513.665 14823795.127 -11655929.503 10 0 59952 39600.00000 0 15695278.609 14024298.948 -14316772.409 10 0 59952 40500.00000 0 13943896.678 13218218.125 -16697806.415 10 0 59952 41400.00000 0 11876905.205 12461287.884 -18752498.683 10 0 59952 42300.00000 0 9535660.167 11803863.056 -20440739.069 10 0 59952 43200.00000 0 6971833.318 11288688.693 -21729633.754 10 0 59952 44100.00000 0 4245479.007 10949014.484 -22594150.719 10 0 59952 45000.00000 0 1422752.941 10807133.661 -23017604.299 10 0 59952 45900.00000 0 -1426620.257 10873408.264 -22991969.803 10 0 59952 46800.00000 0 -4232023.481 11145821.254 -22518023.068 10 0 59952 47700.00000 0 -6924654.708 11610072.957 -21605303.641 10 0 59952 48600.00000 0 -9440152.247 12240215.810 -20271904.024 10 0 59952 49500.00000 0 -11721028.506 12999798.373 -18544090.982 10 0 59952 50400.00000 0 -13718811.712 13843467.980 -16455768.181 10 0 59952 51300.00000 0 -15395808.230 14718962.275 -14047792.489 10 0 59952 52200.00000 0 -16726414.491 15569403.869 -11367158.829 10 0 59952 53100.00000 0 -17697926.872 16335800.078 -8466070.910 10 0 59952 54000.00000 0 -18310819.164 16959641.756 -5400916.944 10 0 59952 54900.00000 0 -18578479.597 17385491.721 -2231170.905 10 0 59952 55800.00000 0 -18526421.682 17563454.367 981758.925 10 0 59952 56700.00000 0 -18191004.917 17451423.641 4175712.007 10 0 59952 57600.00000 0 -17617721.135 17017016.264 7288965.829 10 0 59952 58500.00000 0 -16859119.802 16239110.547 10261412.327 10 0 59952 59400.00000 0 -15972459.824 15108927.695 13035699.076 10 0 59952 60300.00000 0 -15017186.015 13630611.333 15558314.945 10 0 59952 61200.00000 0 -14052334.995 11821281.640 17780601.083 10 0 59952 62100.00000 0 -13133977.649 9710561.622 19659669.794 10 0 59952 63000.00000 0 -12312803.330 7339594.312 21159215.552 10 0 59952 63900.00000 0 -11631945.084 4759590.152 22250204.197 10 0 59952 64800.00000 0 -11125135.212 2029962.417 22911428.429 10 0 59952 65700.00000 0 -10815267.206 -783874.877 23129919.702 10 0 59952 66600.00000 0 -10713423.792 -3612958.443 22901208.739 10 0 59952 67500.00000 0 -10818412.110 -6387378.282 22229429.169 10 0 59952 68400.00000 0 -11116826.705 -9038926.437 21127261.049 10 0 59952 69300.00000 0 -11583639.572 -11503684.509 19615713.552 10 0 59952 70200.00000 0 -12183294.957 -13724444.254 17723748.721 10 0 59952 71100.00000 0 -12871265.569 -15652861.540 15487750.909 10 0 59952 72000.00000 0 -13596007.339 -17251253.804 12950849.543 10 0 59952 72900.00000 0 -14301232.571 -18493965.229 10162105.805 10 0 59952 73800.00000 0 -14928407.039 -19368241.011 7175576.874 10 0 59952 74700.00000 0 -15419366.131 -19874572.150 4049274.471 10 0 59952 75600.00000 0 -15718938.915 -20026494.351 844037.180 10 0 59952 76500.00000 0 -15777467.578 -19849847.734 -2377661.460 10 0 59952 77400.00000 0 -15553113.192 -19381527.332 -5552944.913 10 0 59952 78300.00000 0 -15013847.148 -18667776.640 -8619780.107 10 0 59952 79200.00000 0 -14139040.584 -17762096.624 -11518211.955 10 0 59952 80100.00000 0 -12920581.291 -16722859.774 -14191559.336 10 0 59952 81000.00000 0 -11363467.890 -15610731.939 -16587546.680 10 0 59952 81900.00000 0 -9485853.860 -14486013.290 -18659346.735 10 0 59952 82800.00000 0 -7318538.031 -13406013.317 -20366512.040 10 0 59952 83700.00000 0 -4903922.298 -12422573.163 -21675775.507 10 0 59952 84600.00000 0 -2294480.425 -11579841.807 -22561703.613 10 0 59952 85500.00000 0 449197.000 -10912401.257 -23007189.190 10 0 59953 0.00000 0 3260698.169 -10443820.232 -23003774.702 10 0 59953 900.00000 0 6070330.404 -10185696.642 -22551800.528 10 0 59953 1800.00000 0 8807794.066 -10137228.494 -21660376.892 10 0 59953 2700.00000 0 11404882.636 -10285328.446 -20347181.671 10 0 59953 3600.00000 0 13798092.351 -10605275.360 -18638089.776 10 0 59953 4500.00000 0 15931034.446 -11061872.378 -16566643.346 10 0 59953 5400.00000 0 17756550.456 -11611060.041 -14173374.881 10 0 59953 6300.00000 0 19238444.328 -12201914.039 -11504998.120 10 0 59953 7200.00000 0 20352761.606 -12778941.394 -8613483.894 10 0 59953 8100.00000 0 21088565.406 -13284576.941 -5555039.975 10 0 59953 9000.00000 0 21448180.053 -13661774.206 -2389015.449 10 0 59953 9900.00000 0 21446895.432 -13856581.554 823248.704 10 0 59953 10800.00000 0 21112147.475 -13820595.706 4019600.696 10 0 59953 11700.00000 0 20482211.512 -13513190.458 7138268.349 10 0 59953 12600.00000 0 19604465.046 -12903428.311 10119036.705 10 0 59953 13500.00000 0 18533293.591 -11971576.077 12904391.462 10 0 59953 14400.00000 0 17327727.322 -10710162.050 15440607.799 10 0 59953 15300.00000 0 16048906.815 -9124531.292 17678765.458 10 0 59953 16200.00000 0 14757482.476 -7232875.955 19575672.525 10 0 59953 17100.00000 0 13511054.566 -5065738.672 21094682.093 10 0 59953 18000.00000 0 12361758.752 -2665008.358 22206387.721 10 0 59953 18900.00000 0 11354096.058 -82447.938 22889185.727 10 0 59953 19800.00000 0 10523096.202 2622187.672 23129694.313 10 0 59953 20700.00000 0 9892889.962 5383368.410 22923021.644 10 0 59953 21600.00000 0 9475749.840 8132252.236 22272877.268 10 0 59953 22500.00000 0 9271639.575 10799295.761 21191523.537 10 0 59953 23400.00000 0 9268292.551 13316906.779 19699566.190 10 0 59953 24300.00000 0 9441817.649 15622030.799 17825585.853 10 0 59953 25200.00000 0 9757809.333 17658565.325 15605614.942 10 0 59953 26100.00000 0 10172917.693 19379501.679 13082467.473 10 0 59953 27000.00000 0 10636814.481 20748704.487 10304932.197 10 0 59953 27900.00000 0 11094473.883 21742253.078 7326842.559 10 0 59953 28800.00000 0 11488672.569 22349286.684 4206040.093 10 0 59953 29700.00000 0 11762603.264 22572315.780 1003250.572 10 0 59953 30600.00000 0 11862490.098 22426984.395 -2219105.219 10 0 59953 31500.00000 0 11740093.014 21941291.604 -5398141.959 10 0 59953 32400.00000 0 11354992.349 21154303.973 -8471756.099 10 0 59953 33300.00000 0 10676553.557 20114412.957 -11379861.549 10 0 59953 34200.00000 0 9685485.509 18877211.420 -14065588.169 10 0 59953 35100.00000 0 8374923.221 17503080.298 -16476417.142 10 0 59953 36000.00000 0 6750986.448 16054589.281 -18565228.721 10 0 59953 36900.00000 0 4832788.580 14593823.580 -20291239.765 10 0 59953 37800.00000 0 2651894.179 13179751.922 -21620811.284 10 0 59953 38700.00000 0 251247.551 11865748.798 -22528109.328 10 0 59953 39600.00000 0 -2316382.255 10697376.925 -22995606.031 10 0 59953 40500.00000 0 -4990373.960 9710523.990 -23014411.440 10 0 59953 41400.00000 0 -7704560.278 8929971.925 -22584430.580 10 0 59953 42300.00000 0 -10389770.054 8368457.862 -21714344.085 10 0 59953 43200.00000 0 -12976499.059 8026264.307 -20421414.444 10 0 59953 44100.00000 0 -15397597.315 7891353.224 -18731123.521 10 0 59953 45000.00000 0 -17590860.666 7940035.419 -16676650.325 10 0 59953 45900.00000 0 -19501419.164 8138143.915 -14298201.052 10 0 59953 46800.00000 0 -21083823.982 8442658.895 -11642206.079 10 0 59953 47700.00000 0 -22303747.741 8803713.182 -8760401.008 10 0 59953 48600.00000 0 -23139229.852 9166891.670 -5708810.736 10 0 59953 49500.00000 0 -23581417.812 9475726.435 -2546656.984 10 0 59953 50400.00000 0 -23634776.456 9674281.760 664789.066 10 0 59953 51300.00000 0 -23316759.401 9709720.244 3863386.882 10 0 59953 52200.00000 0 -22656959.018 9534742.596 6987317.140 10 0 59953 53100.00000 0 -21695772.432 9109799.608 9976260.518 10 0 59953 54000.00000 0 -20482640.646 8404984.580 12772543.316 10 0 59953 54900.00000 0 -19073934.833 7401528.053 15322229.467 10 0 59953 55800.00000 0 -17530577.751 6092833.128 17576139.637 10 0 59953 56700.00000 0 -15915498.520 4485008.518 19490779.867 10 0 59953 57600.00000 0 -14291025.270 2596876.783 21029163.800 10 0 59953 58500.00000 0 -12716322.369 459456.376 22161514.365 10 0 59953 59400.00000 0 -11244976.873 -1885062.781 22865832.823 10 0 59953 60300.00000 0 -9922832.771 -4384810.236 23128325.107 10 0 59953 61200.00000 0 -8786161.742 -6980133.539 22943677.446 10 0 59953 62100.00000 0 -7860245.676 -9605829.033 22315175.576 10 0 59953 63000.00000 0 -7158429.835 -12193615.771 21254664.054 10 0 59953 63900.00000 0 -6681686.758 -14674752.890 19782344.746 10 0 59953 64800.00000 0 -6418710.331 -16982694.337 17926416.059 10 0 59953 65700.00000 0 -6346537.827 -19055672.273 15722557.344 10 0 59953 66600.00000 0 -6431675.853 -20839102.299 13213265.742 10 0 59953 67500.00000 0 -6631684.881 -22287709.980 10447055.803 10 0 59953 68400.00000 0 -6897157.306 -23367288.705 7477535.205 10 0 59953 69300.00000 0 -7174006.684 -24056013.353 4362373.017 10 0 59953 70200.00000 0 -7405971.672 -24345252.395 1162179.713 10 0 59953 71100.00000 0 -7537228.077 -24239841.874 -2060679.331 10 0 59953 72000.00000 0 -7514996.778 -23757807.463 -5243312.858 10 0 59953 72900.00000 0 -7292034.618 -22929544.652 -8323549.826 10 0 59953 73800.00000 0 -6828899.646 -21796490.607 -11241176.266 10 0 59953 74700.00000 0 -6095891.414 -20409343.672 -13939136.191 10 0 59953 75600.00000 0 -5074580.846 -18825906.346 -16364670.694 10 0 59953 76500.00000 0 -3758861.890 -17108644.244 -18470370.571 10 0 59953 77400.00000 0 -2155478.148 -15322065.970 -20215119.793 10 0 59953 78300.00000 0 -284000.520 -13530036.541 -21564909.916 10 0 59953 79200.00000 0 1823744.085 -11793139.605 -22493508.575 10 0 59953 80100.00000 0 4124768.979 -10166201.159 -22982968.721 10 0 59953 81000.00000 0 6566502.284 -8696079.918 -23023969.001 10 0 59953 81900.00000 0 9088772.842 -7419817.323 -22615979.587 10 0 59953 82800.00000 0 11626122.922 -6363224.184 -21767251.512 10 0 59953 83700.00000 0 14110349.756 -5539961.626 -20494631.450 10 0 59953 84600.00000 0 16473168.717 -4951152.445 -18823207.354 10 0 59953 85500.00000 0 18648886.252 -4585536.218 -16785793.823 99